• In Uzbekistan
  • List of Countries
  • For 7 days
  • Water Temperature
  • Weather Map
  • Weather Widgets
  • user-avatar
    Login

    Hourly Weather Salzburg

    Today, 23 February, Sunday

    Time Temperature Precipitation Wind Pressure Humidity
    00:00 +1°C° 0 mm 1 mps 631 mmHg 58%
    01:00 +2°C° 0 mm 1 mps 630 mmHg 60%
    02:00 +1°C° 0 mm 1 mps 630 mmHg 66%
    03:00 +1°C° 0 mm 1 mps 629 mmHg 71%
    04:00 0°C° 0 mm 1 mps 629 mmHg 77%
    05:00 0°C° 0 mm 1 mps 629 mmHg 78%
    06:00 0°C° 0 mm 1 mps 629 mmHg 78%
    07:00 +1°C° 0 mm 1 mps 629 mmHg 79%
    08:00 +1°C° 0.3 mm 1 mps 629 mmHg 81%
    09:00 +2°C° 0.3 mm 1 mps 629 mmHg 83%
    10:00 +1°C° 0.3 mm 2 mps 628 mmHg 85%
    11:00 +3°C° 0.2 mm 1 mps 628 mmHg 85%
    12:00 +4°C° 0.2 mm 1 mps 628 mmHg 85%
    13:00 +5°C° 0.2 mm 1 mps 628 mmHg 85%
    14:00 +3°C° 0.5 mm 2 mps 627 mmHg 88%
    15:00 +3°C° 0.5 mm 2 mps 627 mmHg 90%
    16:00 +3°C° 0.5 mm 2 mps 626 mmHg 93%
    17:00 +3°C° 0 mm 2 mps 626 mmHg 92%
    18:00 +3°C° 0 mm 2 mps 626 mmHg 91%
    19:00 +3°C° 0 mm 2 mps 626 mmHg 91%
    20:00 +3°C° 0.1 mm 2 mps 626 mmHg 91%
    21:00 +3°C° 0.1 mm 2 mps 626 mmHg 92%
    22:00 +2°C° 0.1 mm 3 mps 626 mmHg 93%
    23:00 +2°C° 0.4 mm 3 mps 626 mmHg 93%

    Tomorrow, 24 February, Monday

    Time Temperature Precipitation Wind Pressure Humidity
    00:00 +2°C° 0.4 mm 3 mps 626 mmHg 93%
    01:00 +1°C° 0.4 mm 3 mps 627 mmHg 93%
    02:00 +1°C° 1.2 mm 3 mps 627 mmHg 95%
    03:00 +1°C° 1.2 mm 3 mps 627 mmHg 96%
    04:00 0°C° 1.2 mm 3 mps 627 mmHg 98%
    05:00 -1°C° 1.7 mm 2 mps 627 mmHg 98%
    06:00 -1°C° 1.7 mm 2 mps 627 mmHg 98%
    07:00 -2°C° 1.7 mm 2 mps 628 mmHg 98%
    08:00 0°C° 1.3 mm 1 mps 628 mmHg 98%
    09:00 0°C° 1.3 mm 1 mps 628 mmHg 98%
    10:00 0°C° 1.3 mm 1 mps 628 mmHg 98%
    11:00 +1°C° 0.8 mm 1 mps 628 mmHg 97%
    12:00 +1°C° 0.8 mm 1 mps 627 mmHg 97%
    13:00 +1°C° 0.8 mm 1 mps 627 mmHg 97%
    14:00 +2°C° 0.1 mm 1 mps 627 mmHg 95%
    15:00 +3°C° 0.1 mm 1 mps 626 mmHg 94%
    16:00 +3°C° 0.1 mm 1 mps 626 mmHg 93%
    17:00 +2°C° 0 mm 2 mps 625 mmHg 92%
    18:00 +1°C° 0 mm 2 mps 625 mmHg 91%
    19:00 -1°C° 0 mm 2 mps 624 mmHg 91%
    20:00 -1°C° 0 mm 2 mps 624 mmHg 89%
    21:00 -1°C° 0 mm 2 mps 623 mmHg 88%
    22:00 -1°C° 0 mm 2 mps 623 mmHg 86%
    23:00 -1°C° 0 mm 2 mps 622 mmHg 86%

    Day after tomorrow, 25 February, Tuesday

    Time Temperature Precipitation Wind Pressure Humidity
    00:00 -2°C° 0 mm 2 mps 622 mmHg 85%
    01:00 -2°C° 0 mm 2 mps 621 mmHg 84%
    02:00 -2°C° 0 mm 2 mps 621 mmHg 84%
    03:00 -2°C° 0 mm 2 mps 620 mmHg 84%
    04:00 -2°C° 0 mm 2 mps 620 mmHg 84%
    05:00 0°C° 0 mm 1 mps 620 mmHg 84%
    06:00 0°C° 0 mm 1 mps 620 mmHg 84%
    07:00 0°C° 0 mm 1 mps 619 mmHg 84%
    08:00 +1°C° 0 mm 1 mps 619 mmHg 83%
    09:00 +2°C° 0 mm 1 mps 620 mmHg 81%
    10:00 +3°C° 0 mm 0 mps 620 mmHg 80%
    11:00 +3°C° 0 mm 0 mps 620 mmHg 78%
    12:00 +4°C° 0 mm 0 mps 619 mmHg 76%
    13:00 +4°C° 0 mm 0 mps 619 mmHg 74%
    14:00 +4°C° 0 mm 0 mps 619 mmHg 76%
    15:00 +3°C° 0 mm 0 mps 618 mmHg 79%
    16:00 +4°C° 0 mm 1 mps 617 mmHg 82%
    17:00 +3°C° 0.5 mm 1 mps 617 mmHg 87%
    18:00 +2°C° 0.5 mm 1 mps 617 mmHg 92%
    19:00 +1°C° 0.5 mm 1 mps 616 mmHg 97%
    20:00 0°C° 1.9 mm 1 mps 616 mmHg 97%
    21:00 0°C° 1.9 mm 1 mps 616 mmHg 97%
    22:00 -1°C° 1.9 mm 1 mps 615 mmHg 98%
    23:00 -1°C° 1.7 mm 1 mps 615 mmHg 98%

    26 February, Wednesday

    Time Temperature Precipitation Wind Pressure Humidity
    00:00 -1°C° 1.7 mm 1 mps 614 mmHg 98%
    01:00 -2°C° 1.7 mm 1 mps 614 mmHg 98%
    02:00 -2°C° 0.7 mm 1 mps 613 mmHg 97%
    03:00 -3°C° 0.7 mm 1 mps 613 mmHg 96%
    04:00 -3°C° 0.7 mm 1 mps 612 mmHg 95%
    05:00 -4°C° 0.2 mm 1 mps 611 mmHg 94%
    06:00 -4°C° 0.2 mm 1 mps 611 mmHg 94%
    07:00 -6°C° 0.2 mm 1 mps 610 mmHg 93%
    08:00 -6°C° 0.3 mm 2 mps 610 mmHg 93%
    09:00 -6°C° 0.3 mm 2 mps 610 mmHg 94%
    10:00 -6°C° 0.3 mm 3 mps 610 mmHg 94%
    11:00 -6°C° 1.5 mm 3 mps 610 mmHg 91%
    12:00 -7°C° 1.5 mm 3 mps 610 mmHg 87%
    13:00 -8°C° 1.5 mm 3 mps 611 mmHg 84%
    14:00 -8°C° 0.7 mm 3 mps 611 mmHg 83%
    15:00 -9°C° 0.7 mm 3 mps 611 mmHg 82%
    16:00 -9°C° 0.7 mm 3 mps 611 mmHg 81%
    17:00 -10°C° 0.2 mm 3 mps 611 mmHg 85%
    18:00 -10°C° 0.2 mm 2 mps 612 mmHg 88%
    19:00 -10°C° 0.2 mm 2 mps 612 mmHg 91%
    20:00 -10°C° 0.1 mm 2 mps 612 mmHg 92%
    21:00 -10°C° 0.1 mm 2 mps 613 mmHg 93%
    22:00 -10°C° 0.1 mm 1 mps 613 mmHg 94%
    23:00 -10°C° 0.7 mm 2 mps 614 mmHg 94%

    27 February, Thursday

    Time Temperature Precipitation Wind Pressure Humidity
    00:00 -10°C° 0.7 mm 2 mps 614 mmHg 95%
    01:00 -10°C° 0.7 mm 2 mps 615 mmHg 95%
    02:00 -10°C° 0.7 mm 2 mps 615 mmHg 96%
    03:00 -10°C° 0.7 mm 2 mps 616 mmHg 96%
    04:00 -8°C° 0.7 mm 1 mps 616 mmHg 96%
    05:00 -10°C° 1.2 mm 2 mps 616 mmHg 96%
    06:00 -10°C° 1.2 mm 2 mps 617 mmHg 96%
    07:00 -10°C° 1.2 mm 2 mps 617 mmHg 96%
    08:00 -9°C° 0.4 mm 2 mps 618 mmHg 93%
    09:00 -9°C° 0.4 mm 2 mps 619 mmHg 90%
    10:00 -8°C° 0.4 mm 2 mps 619 mmHg 87%
    11:00 -7°C° 0.3 mm 2 mps 619 mmHg 83%
    12:00 -4°C° 0.3 mm 1 mps 619 mmHg 79%
    13:00 -3°C° 0.3 mm 1 mps 619 mmHg 76%
    14:00 -3°C° 0 mm 1 mps 619 mmHg 75%
    15:00 -3°C° 0 mm 1 mps 618 mmHg 75%
    16:00 -5°C° 0 mm 2 mps 617 mmHg 75%
    17:00 -6°C° 0.1 mm 2 mps 617 mmHg 79%
    18:00 -6°C° 0.1 mm 2 mps 617 mmHg 82%
    19:00 -8°C° 0.1 mm 3 mps 616 mmHg 86%
    20:00 -8°C° 0.3 mm 3 mps 616 mmHg 87%
    21:00 -8°C° 0.3 mm 3 mps 616 mmHg 88%
    22:00 -8°C° 0.3 mm 3 mps 616 mmHg 90%
    23:00 -8°C° 0.1 mm 3 mps 616 mmHg 90%

    28 February, Friday

    Time Temperature Precipitation Wind Pressure Humidity
    00:00 -8°C° 0.1 mm 3 mps 616 mmHg 89%
    01:00 -8°C° 0.1 mm 3 mps 616 mmHg 89%
    02:00 -8°C° 0.1 mm 3 mps 616 mmHg 89%
    03:00 -6°C° 0.1 mm 2 mps 616 mmHg 88%
    04:00 -6°C° 0.1 mm 2 mps 616 mmHg 88%
    05:00 -6°C° 0 mm 2 mps 616 mmHg 87%
    06:00 -6°C° 0 mm 2 mps 616 mmHg 86%
    07:00 -4°C° 0 mm 1 mps 616 mmHg 85%
    08:00 -2°C° 0.2 mm 1 mps 617 mmHg 89%
    09:00 -1°C° 0.2 mm 1 mps 617 mmHg 93%
    10:00 0°C° 0.2 mm 1 mps 618 mmHg 97%
    11:00 0°C° 0.4 mm 1 mps 618 mmHg 98%
    12:00 0°C° 0.4 mm 1 mps 618 mmHg 99%
    13:00 0°C° 0.4 mm 1 mps 618 mmHg 99%
    14:00 0°C° 0.3 mm 1 mps 618 mmHg 99%
    15:00 -1°C° 0.3 mm 0 mps 618 mmHg 99%
    16:00 -1°C° 0.3 mm 0 mps 618 mmHg 99%
    17:00 -1°C° 0.7 mm 0 mps 618 mmHg 99%
    18:00 -1°C° 0.7 mm 0 mps 618 mmHg 99%
    19:00 -2°C° 0.7 mm 0 mps 619 mmHg 98%
    20:00 -1°C° 0.2 mm 1 mps 618 mmHg 97%
    21:00 -1°C° 0.2 mm 1 mps 618 mmHg 96%
    22:00 -3°C° 0.2 mm 2 mps 618 mmHg 95%
    23:00 -3°C° 0 mm 2 mps 618 mmHg 93%
    Show more